Lid_Strength_Index
2 1 1 1 1 1 2 2 1 1 1 1 1 1 1 1 1 1 1 1 2 1 1 2 2 1 1 2 2 2 3 3 4 4 2 2 2 1 1 0 2 2 2
1 2 1 1 1 1 1 1 2 2 1 1 0 1 1 1 1 1 1 1 1 2 1 2 2 1 2 2 2 2 3 3 4 5 4 2 2 2 1 1 2 1 2
2 2 2 2 1 1 1 1 1 2 2 1 1 1 1 1 1 1 1 1 1 1 1 1 1 2 2 2 3 2 2 3 3 4 4 2 2 2 2 2 2 1 0
2 2 2 2 2 1 1 1 1 1 2 1 1 1 1 1 1 1 1 1 1 1 1 1 1 2 2 2 2 2 2 3 3 3 3 3 2 2 2 2 2 1 1
2 2 2 2 1 1 1 1 1 1 1 1 1 1 1 1 1 1 1 1 1 1 1 1 1 1 2 2 2 2 3 4 4 3 4 4 3 3 3 2 2 2 1
2 2 2 2 2 2 1 1 1 1 1 1 1 1 1 1 3 4 1 1 1 1 2 1 1 1 2 4 4 4 3 3 4 4 3 3 3 2 2 2 2 3 4
2 2 2 2 2 2 2 2 2 2 1 1 1 1 1 1 5 5 4 1 1 1 1 1 1 1 2 1 4 5 5 5 4 4 5 3 3 3 2 2 2 2 3
2 2 2 2 2 2 2 2 2 2 2 2 2 1 1 1 5 6 5 2 1 1 1 1 1 1 1 1 1 2 3 3 3 4 3 4 4 3 3 3 2 2 2
3 2 2 2 2 2 2 2 2 2 2 2 1 1 2 1 7 7 7 2 1 1 1 1 1 1 3 5 2 2 2 2 4 6 5 5 6 6 5 3 4 4 4
3 2 2 2 2 2 2 2 2 2 2 1 2 1 3 1 6 8 7 2 2 2 1 1 5 3 6 7 3 2 3 2 2 2 4 5 6 5 6 3 3 4 4
2 2 2 2 2 2 2 2 2 2 2 2 2 2 1 2 2 10 10 2 2 2 2 2 1 7 9 10 8 1 2 2 2 2 2 3 3 4 4 3 2 3 4
2 2 2 2 2 2 2 2 2 2 2 2 2 2 2 1 7 9 11 9 4 2 2 1 1 8 11 11 9 7 8 8 2 2 2 3 4 4 3 3 3 3 2
3 3 3 2 2 2 2 2 2 2 3 3 3 3 3 2 1 10 12 11 10 4 1 3 7 11 12 11 12 11 9 5 4 3 3 2 3 3 2 2 3 2 1
3 3 3 3 3 3 2 2 2 3 3 3 3 3 3 2 2 2 6 8 10 8 7 5 8 8 10 8 8 9 8 6 5 4 3 2 2 2 3 3 3 2 2
3 4 3 3 4 3 5 6 2 2 4 3 3 2 3 3 3 5 5 5 5 6 6 6 7 6 6 6 6 6 6 6 5 4 3 4 4 3 3 2 2 3 5
3 3 3 3 3 5 8 11 17 18 18 18 15 7 5 13 13 14 16 14 14 14 6 5 5 5 6 6 6 6 6 5 4 3 3 3 4 3 3 2 2 4 4
3 3 3 4 3 6 7 7 8 12 18 20 20 16 14 14 18 18 18 18 17 12 6 6 6 6 6 6 6 6 5 3 3 3 3 2 3 3 2 2 3 4 5
3 6 3 3 3 4 6 6 6 7 7 8 16 18 19 19 19 17 17 11 6 8 7 7 7 7 7 8 6 4 3 4 4 2 2 2 2 2 3 3 4 4 5
3 3 2 2 3 4 4 6 6 8 9 10 11 13 17 18 17 15 15 7 8 8 8 8 8 8 7 6 5 4 4 4 3 2 2 2 2 3 3 3 4 7 6
2 5 6 3 3 4 4 6 6 9 10 10 9 9 9 9 8 8 8 8 8 8 8 7 6 5 4 4 2 4 4 3 2 3 3 2 2 3 4 4 5 5 6
2 3 5 5 5 3 3 5 6 8 9 8 7 8 12 7 7 8 7 8 8 7 5 5 4 4 4 4 3 3 2 2 2 2 2 3 3 4 5 5 6 6 7
2 2 4 4 4 4 5 5 6 7 7 8 9 11 15 7 6 6 6 6 6 4 3 3 3 3 3 3 3 3 3 3 3 3 4 3 4 5 5 6 6 6 7
2 2 4 5 5 7 6 6 7 7 8 8 8 9 7 5 5 5 4 3 3 3 2 3 3 3 3 3 3 3 3 3 2 2 3 3 4 4 5 5 6 7 8
4 4 5 5 6 7 7 8 9 10 8 8 8 7 5 4 4 3 3 3 3 2 2 2 2 3 3 3 2 2 2 2 3 2 3 3 4 5 4 5 6 7 7
5 5 6 6 7 8 9 8 8 9 9 10 9 8 6 6 7 7 8 8 8 8 9 7 5 2 3 4 5 5 11 13 4 6 2 2 3 3 4 4 5 7 7
6 7 7 8 9 9 9 10 10 10 11 11 10 9 9 9 10 10 10 11 12 12 12 13 14 12 11 13 13 16 18 18 11 14 3 3 3 4 4 5 6 6 7